SL-12 R/B(2), 13630

Orbit data source: Space-Track

SL-12 R/B(2), 13630 is space debris in GEO originally from a launch on Wed, 20 Oct 1982 UTC launched from the Tyuratam Missile And Space Complex (TTMTR). Debris objects in space refer to the collection of defunct objects orbiting the Earth. Examples of debris include non-operational satellites, rocket bodies, and fragments generated from explosions, collisions, or faulty payload assembly.

Not visible in the next 10 days
Identifier
13630, 1982-103E
Orbit
GEO
Last TLE update
21 hours ago
Origin
Manufacturer
NPO Energiya
Mission
Spacecraft
Bus & Motor
BLOK DM, Unknown motor
Mass
2,440 kg wet, 2,440 kg dry
Launch date (UTC)
1982-10-20 (43 years ago)
Launch vehicle
Unknown
Launch site
Tyuratam Missile And Space Complex (TTMTR)
Object type
Payload
Rocket body
Debris
Shape & HBR
Cyl, 6.27 m
Radar Cross Section
23.597 m², Large (>1 m²)

Expand to show TLE details & history

TLE from 21 hours ago
0 SL-12 R/B(2)
1 13630U 82103E   25128.74062231  .00000038  00000-0  00000+0 0  9990
2 13630   8.1812 304.7280 0012662 180.6102  14.5609  1.00344050117500
Epoch: 2025-05-08T17:46Z
Definitive object data (Epoch: 2025-05-08T17:46:29.767Z)
Latitude
-2.16208°
Longitude
6.35803°
Altitude
35,714.794 km
Speed
3.079 km/s
True Right ascension
09h 19m 09s
True Declination
-2° 09' 36"
Sunlit
Object was in daylight at TLE epoch
Visualization TLE readout
Latitude
4.57566°
Longitude
-42.59262°
Altitude
35,721.665 km
Speed
3.079 km/s
Apparent Right ascension
06h 27m 02s
Apparent Declination
0° 55' 52"
Sunlit
Object is in daylight
Visualization observer readout
Local Sidereal Time
22:35:21
Azimuth
71.95° E
Elevation
-21.684°
Doppler factor
1
Orbital elements
Apogee altitude
35,820.752 km
Perigee altitude
35,714.023 km
Semi-major axis
42,145.525 km
Eccentricity
0.0012662
Inclination
8.1812°
RAAN
304.728°
Arg. of periapsis
180.6102°
True anomaly
14.59743°
Mean anomaly
14.5609°
Eccentric anomaly
14.57916°
Mean motion
0.25085 °/min
BSTAR
Unknown
Orbital period
1435.11 mins
Loading historical data...
13630 neighbors
Loading maneuver chart data...
Loading SW <> Apogee altitude chart data...
Loading historical data...
Loading historical data...
Loading historical data...
Loading historical data...
Loading historical data...
Loading historical data...
Loading historical data...

SL-12 R/B(2) Visibility forecast

Observer location: undefined°, undefined°

SL-12 R/B(2) is not visible in the next 10 days
Span
Click to sort rows by Start time (UTC) header in descending order
Start Az.
Max El. time (UTC)
Max El. Az.
Max El.
End time (UTC)
End Az.
|